Home > Weather > Potsdam > Past weeks

Flag for Germany Weather for the Past 2 Weeks in Potsdam, Brandenburg, Germany

Now
48 °F

Clear.


Feels Like: 46 °F
Forecast: 45 / 64 °F
Wind: 6 mph from Southeast

Location: Berlin-Tegel

Current Time: Apr 30, 2016 at 1:37:48 AM

Latest Report: Apr 30, 2016 at 12:50 AM


Visibility: 10 mi

Pressure: 30.07 "Hg

Humidity: 46%

Dew Point: 28 °F

Location of PotsdamLocation

Historic Weather in Potsdam — Graph

°F

Potsdam Temperature Yesterday

Maximum temperature yesterday: 59 °F (at 3:50 PM)
Minimum temperature yesterday: 32 °F (at 5:50 AM)
Average temperature yesterday: 48 °F

High & Low Weather Summary for the Past Weeks

 TemperatureHumidityPressure
High59 °F (Apr 19, 3:20 PM)100% (Apr 15, 2:50 AM)30.36 "Hg (Apr 15, 2:50 AM)
Low32 °F (Apr 29, 5:50 AM)27% (Apr 29, 3:50 PM)29.45 "Hg (Apr 26, 5:50 AM)
Average46 °F65%29.88 "Hg
* Reported Apr 15 12:20 AM — Apr 30 12:20 AM, Potsdam, Weather by CustomWeather, © 2016

Note: Actual official high and low records may vary slightly from our data, if they occured in-between our weather recording intervals... More about our weather records

Advertising

Potsdam Weather History for the Previous 24 Hours

Scroll right to see more
 ConditionsComfort  
Time TempWeatherWind HumidityBarometerVisibility
12:20 AM
Sat, Apr 30
48 °FClear.6 mph50%30.07 "Hg10 mi
11:20 PM
Fri, Apr 29
48 °FClear.5 mph46%30.07 "Hg10 mi
10:50 PM48 °FClear.6 mph46%30.07 "Hg10 mi
10:20 PM50 °FClear.6 mph40%30.07 "Hg10 mi
9:50 PM50 °FClear.6 mph43%30.07 "Hg10 mi
9:20 PM54 °FSunny.5 mph35%30.07 "Hg10 mi
8:50 PM55 °FSunny.6 mph33%30.07 "Hg10 mi
8:20 PM55 °FSunny.8 mph31%30.07 "Hg10 mi
7:50 PM55 °FPassing clouds.9 mph31%30.07 "HgN/A
7:20 PM57 °FSunny.12 mph29%30.07 "Hg10 mi
6:50 PM57 °FPassing clouds.12 mph29%30.07 "HgN/A
6:20 PM57 °FPassing clouds.10 mph29%30.07 "HgN/A
5:50 PM59 °FSunny.15 mph27%30.07 "Hg10 mi
5:20 PM59 °FPassing clouds.12 mph29%30.07 "HgN/A
4:50 PM57 °FPassing clouds.14 mph29%30.07 "HgN/A
4:20 PM57 °FSunny.12 mph29%30.07 "Hg10 mi
3:50 PM59 °FSunny.13 mph27%30.07 "Hg10 mi
3:20 PM57 °FPassing clouds.15 mph29%30.07 "HgN/A
2:50 PM55 °FPassing clouds.14 mph33%30.07 "HgN/A
2:20 PM55 °FPassing clouds.12 mph33%30.07 "HgN/A
1:50 PM57 °FPassing clouds.15 mph31%30.07 "HgN/A
1:20 PM57 °FPassing clouds.15 mph36%30.07 "HgN/A
12:50 PM55 °FPassing clouds.14 mph31%30.09 "HgN/A
12:20 PM55 °FPassing clouds.15 mph33%30.09 "HgN/A
11:50 AM55 °FPassing clouds.18 mph31%30.09 "HgN/A
11:20 AM55 °FSunny.17 mph36%30.09 "Hg10 mi
10:50 AM54 °FPassing clouds.14 mph41%30.09 "HgN/A
10:20 AM52 °FPassing clouds.13 mph47%30.09 "HgN/A
9:50 AM50 °FPassing clouds.10 mph54%30.07 "HgN/A
9:20 AM48 °FPassing clouds.8 mph58%30.07 "HgN/A
8:50 AM46 °FSunny.9 mph62%30.07 "Hg10 mi
8:20 AM43 °FSunny.9 mph71%30.07 "Hg10 mi
7:50 AM41 °FSunny.9 mph70%30.07 "Hg10 mi
7:20 AM39 °FPassing clouds.6 mph75%30.07 "HgN/A
6:50 AM37 °FSunny.6 mph81%30.07 "Hg10 mi
6:20 AM34 °FPassing clouds.3 mph87%30.07 "HgN/A
5:50 AM32 °FClear.6 mph93%30.04 "Hg10 mi
5:20 AM34 °FClear.3 mph93%30.04 "Hg10 mi
4:20 AM34 °FFog.2 mph93%30.04 "HgN/A
3:50 AM34 °FFog.1 mph87%30.04 "HgN/A
3:20 AM36 °FFog.No wind87%30.04 "HgN/A
2:50 AM34 °FFog.1 mph93%30.04 "HgN/A
2:20 AM36 °FFog.1 mph87%30.04 "HgN/A
1:50 AM37 °FFog.1 mph81%30.04 "HgN/A
1:20 AM37 °FFog.2 mph87%30.04 "HgN/A
Weather by CustomWeather, © 2016

See weather overviewHow to use our weather pages